Home > Products > State Listing > Oklahoma Data
Latest:
 RWROK |
  [top]

000
ASUS44 KOUN 300810
RWROK

WEATHER ROUNDUP FOR OKLAHOMA
NATIONAL WEATHER SERVICE NORMAN OK
300 AM CDT MON MAY 30 2016

NOTE: "FAIR" INDICATES FEW OR NO CLOUDS BELOW 12,000 FEET WITH NO
      SIGNIFICANT WEATHER AND/OR OBSTRUCTIONS TO VISIBILITY.

OKZ001>007-009>012-014-015-017-300900-
NORTHWEST OKLAHOMA AND THE PANHANDLE

CITY           SKY/WX    TMP DP  RH WIND       PRES   REMARKS
GAGE           PTCLDY    54  51  90 CALM      30.04F
GUYMON         CLEAR     54  48  80 NW5       30.07F
ENID/WOODRING  CLOUDY    68  59  73 SW5       29.99F
$$

OKZ016-021>023-033>039-044-045-300900-
SOUTHWEST OKLAHOMA

CITY           SKY/WX    TMP DP  RH WIND       PRES   REMARKS
LAWTON/REGL    CLOUDY    67  63  87 E6        30.00F
LAWTON/FT SILL CLOUDY    65  64  94 E2        30.00F
CLINTON        CLOUDY    62  57  83 CALM      30.06S
HOBART         CLOUDY    63  60  90 E6        30.05R
ALTUS AFB      CLOUDY    63  59  88 N6        30.03R
$$

OKZ018>020-024>031-300900-
CENTRAL OKLAHOMA

CITY           SKY/WX    TMP DP  RH WIND       PRES   REMARKS
OKLAHOMA CITY  CLOUDY    67  62  84 E3        30.02F
OKC/WILEY POST CLOUDY    67  61  81 NW7       30.01F
OKC/TINKER AFB CLOUDY    65  63  94 E6        30.03S
STILLWATER     CLOUDY    66  61  84 E7        30.02S
GUTHRIE        CLOUDY    64  62  93 NE5       30.02F
$$

OKZ008-013-054>072-300900-
NORTHEAST OKLAHOMA

CITY           SKY/WX    TMP DP  RH WIND       PRES   REMARKS
TULSA          TSTM      69  65  86 W5        30.02R
TULSA/JONES    CLOUDY    71  64  78 CALM      30.03S
PONCA CITY     CLOUDY    69  61  75 CALM      30.01F
BARTLESVILLE   CLOUDY    63  60  90 SE3       30.04S
MUSKOGEE       MOCLDY    68  63  84 SE5       30.03S
$$

OKZ032-040>043-046>053-073>077-300900-
SOUTH CENTRAL/SOUTHEAST OKLAHOMA

CITY           SKY/WX    TMP DP  RH WIND       PRES   REMARKS
ARDMORE/DWNTWN RAIN      66  63  88 SW5       30.05F
MCALESTER      CLOUDY    70  63  78 CALM      30.01F
$$






000
ASUS44 KOUN 300710
RWROK

WEATHER ROUNDUP FOR OKLAHOMA
NATIONAL WEATHER SERVICE NORMAN OK
200 AM CDT MON MAY 30 2016

NOTE: "FAIR" INDICATES FEW OR NO CLOUDS BELOW 12,000 FEET WITH NO
      SIGNIFICANT WEATHER AND/OR OBSTRUCTIONS TO VISIBILITY.

OKZ001>007-009>012-014-015-017-300800-
NORTHWEST OKLAHOMA AND THE PANHANDLE

CITY           SKY/WX    TMP DP  RH WIND       PRES   REMARKS
GAGE           CLOUDY    54  51  90 E3        30.07F
GUYMON         CLOUDY    52  48  86 SW3       30.08F
ENID/WOODRING    N/A     70  59  68 S14       30.03F
$$

OKZ016-021>023-033>039-044-045-300800-
SOUTHWEST OKLAHOMA

CITY           SKY/WX    TMP DP  RH WIND       PRES   REMARKS
LAWTON/REGL    CLOUDY    66  63  90 S3        30.06S
LAWTON/FT SILL CLOUDY    67  64  91 S7        30.04S
CLINTON        CLOUDY    63  57  81 NE3       30.06F
HOBART         CLOUDY    63  60  90 NE10      30.03F
ALTUS AFB      CLOUDY    64  57  78 N6        29.99F
$$

OKZ018>020-024>031-300800-
CENTRAL OKLAHOMA

CITY           SKY/WX    TMP DP  RH WIND       PRES   REMARKS
OKLAHOMA CITY  CLOUDY    68  61  78 NE10      30.05F
OKC/WILEY POST CLOUDY    67  61  81 E6        30.06F
OKC/TINKER AFB CLOUDY    65  63  94 N9        30.03F
STILLWATER     CLOUDY    66  60  81 W6        30.02F
GUTHRIE        CLOUDY    65  62  90 S3        30.04F
$$

OKZ008-013-054>072-300800-
NORTHEAST OKLAHOMA

CITY           SKY/WX    TMP DP  RH WIND       PRES   REMARKS
TULSA          MOCLDY    69  63  81 E3        30.01F
TULSA/JONES    MOCLDY    68  63  84 NW3       30.03F
PONCA CITY     CLOUDY    70  62  76 S6        30.03R
BARTLESVILLE   MOCLDY    63  61  93 CALM      30.04F
MUSKOGEE       MOCLDY    68  61  78 SE6       30.03F
$$

OKZ032-040>043-046>053-073>077-300800-
SOUTH CENTRAL/SOUTHEAST OKLAHOMA

CITY           SKY/WX    TMP DP  RH WIND       PRES   REMARKS
ARDMORE/DWNTWN LGT RAIN  70  64  83 S3        30.05R
MCALESTER      MOCLDY    71  62  73 CALM      30.03F
$$






000
ASUS44 KOUN 300700
RWROK

WEATHER ROUNDUP FOR OKLAHOMA
NATIONAL WEATHER SERVICE NORMAN OK
200 AM CDT MON MAY 30 2016

NOTE: "FAIR" INDICATES FEW OR NO CLOUDS BELOW 12,000 FEET WITH NO
      SIGNIFICANT WEATHER AND/OR OBSTRUCTIONS TO VISIBILITY.

OKZ001>007-009>012-014-015-017-300800-
NORTHWEST OKLAHOMA AND THE PANHANDLE

CITY           SKY/WX    TMP DP  RH WIND       PRES   REMARKS
GAGE           CLOUDY    54  51  90 E3        30.07F
GUYMON         CLOUDY    52  48  86 SW3       30.08F
$$

OKZ016-021>023-033>039-044-045-300800-
SOUTHWEST OKLAHOMA

CITY           SKY/WX    TMP DP  RH WIND       PRES   REMARKS
LAWTON/REGL    CLOUDY    66  63  90 S3        30.06S
CLINTON        CLOUDY    63  57  81 NE3       30.06F
HOBART         CLOUDY    63  60  90 NE10      30.03F
$$

OKZ018>020-024>031-300800-
CENTRAL OKLAHOMA

CITY           SKY/WX    TMP DP  RH WIND       PRES   REMARKS
OKLAHOMA CITY  CLOUDY    68  61  78 NE10      30.05F
OKC/WILEY POST CLOUDY    67  61  81 E6        30.06F
OKC/TINKER AFB CLOUDY    64  63  94 N10       30.03F
STILLWATER     CLOUDY    66  60  81 W6        30.02F
GUTHRIE        CLOUDY    65  62  90 S3        30.04F
$$

OKZ008-013-054>072-300800-
NORTHEAST OKLAHOMA

CITY           SKY/WX    TMP DP  RH WIND       PRES   REMARKS
TULSA          MOCLDY    69  63  81 E3        30.01F
TULSA/JONES    MOCLDY    68  63  84 NW3       30.03F
PONCA CITY     CLOUDY    70  62  76 S6        30.03R
BARTLESVILLE   MOCLDY    63  61  93 CALM      30.04F
MUSKOGEE       MOCLDY    68  61  78 SE6       30.03F
$$

OKZ032-040>043-046>053-073>077-300800-
SOUTH CENTRAL/SOUTHEAST OKLAHOMA

CITY           SKY/WX    TMP DP  RH WIND       PRES   REMARKS
MCALESTER      MOCLDY    71  62  73 CALM      30.03F
$$






000
ASUS44 KOUN 300610
RWROK

WEATHER ROUNDUP FOR OKLAHOMA
NATIONAL WEATHER SERVICE NORMAN OK
100 AM CDT MON MAY 30 2016

NOTE: "FAIR" INDICATES FEW OR NO CLOUDS BELOW 12,000 FEET WITH NO
      SIGNIFICANT WEATHER AND/OR OBSTRUCTIONS TO VISIBILITY.

OKZ001>007-009>012-014-015-017-300700-
NORTHWEST OKLAHOMA AND THE PANHANDLE

CITY           SKY/WX    TMP DP  RH WIND       PRES   REMARKS
GAGE           PTCLDY    57  52  83 CALM      30.08S
6HR MIN TEMP:  56; 6HR MAX TEMP:  73;

GUYMON         CLOUDY    57  49  74 CALM      30.09R
ENID/WOODRING  MOCLDY    70  63  78 S17       30.05S
$$

OKZ016-021>023-033>039-044-045-300700-
SOUTHWEST OKLAHOMA

CITY           SKY/WX    TMP DP  RH WIND       PRES   REMARKS
LAWTON/REGL    CLOUDY    67  63  87 NE7       30.06R
6HR MIN TEMP:  67; 6HR MAX TEMP:  81; 6HR PCP:  0.02;

LAWTON/FT SILL LGT RAIN  66  64  94 E7        30.04R
CLINTON        CLOUDY    65  55  70 W12       30.08R
HOBART         CLOUDY    63  60  90 SW9       30.06R
ALTUS AFB      CLOUDY    64  59  83 SW12      30.04F
$$

OKZ018>020-024>031-300700-
CENTRAL OKLAHOMA

CITY           SKY/WX    TMP DP  RH WIND       PRES   REMARKS
OKLAHOMA CITY  CLOUDY    67  61  81 NE13      30.07R
6HR MIN TEMP:  67; 6HR MAX TEMP:  81; 6HR PCP:  0.33;

OKC/WILEY POST CLOUDY    67  62  84 E8        30.08R
OKC/TINKER AFB RAIN      65  62  91 E8        30.09R
STILLWATER     LGT RAIN  66  62  87 S9        30.05F
GUTHRIE        LGT RAIN  64  62  93 E5        30.08F
$$

OKZ008-013-054>072-300700-
NORTHEAST OKLAHOMA

CITY           SKY/WX    TMP DP  RH WIND       PRES   REMARKS
TULSA          CLOUDY    70  65  84 E5        30.02F
6HR MIN TEMP:  69; 6HR MAX TEMP:  75;

TULSA/JONES    CLOUDY    69  63  81 CALM      30.04F
PONCA CITY     CLOUDY    71  63  75 S6        30.02F
BARTLESVILLE   CLOUDY    63  61  93 CALM      30.05F
MUSKOGEE       CLOUDY    70  62  76 S5        30.05F
$$

OKZ032-040>043-046>053-073>077-300700-
SOUTH CENTRAL/SOUTHEAST OKLAHOMA

CITY           SKY/WX    TMP DP  RH WIND       PRES   REMARKS
ARDMORE/DWNTWN CLOUDY    72  66  83 CALM      30.04R
MCALESTER      CLOUDY    72  63  73 VRB5      30.07S
$$






000
ASUS44 KOUN 300510
RWROK

WEATHER ROUNDUP FOR OKLAHOMA
NATIONAL WEATHER SERVICE NORMAN OK
1200 AM CDT MON MAY 30 2016

NOTE: "FAIR" INDICATES FEW OR NO CLOUDS BELOW 12,000 FEET WITH NO
      SIGNIFICANT WEATHER AND/OR OBSTRUCTIONS TO VISIBILITY.

OKZ001>007-009>012-014-015-017-300600-
NORTHWEST OKLAHOMA AND THE PANHANDLE

CITY           SKY/WX    TMP DP  RH WIND       PRES   REMARKS
GAGE           PTCLDY    57  52  83 W9        30.08F
GUYMON         CLOUDY    58  49  72 SW8       30.08F
ENID/WOODRING  MOCLDY    68  63  83 E8        30.05F HAZE
$$

OKZ016-021>023-033>039-044-045-300600-
SOUTHWEST OKLAHOMA

CITY           SKY/WX    TMP DP  RH WIND       PRES   REMARKS
LAWTON/REGL    CLOUDY    67  61  81 E5        30.01F
LAWTON/FT SILL CLOUDY    68  59  73 W2        30.01F
CLINTON        CLOUDY    65  54  67 S6        30.06R
HOBART         CLOUDY    65  58  78 SW8       30.02F
ALTUS AFB      CLOUDY    63  60  90 S10       30.03F
$$

OKZ018>020-024>031-300600-
CENTRAL OKLAHOMA

CITY           SKY/WX    TMP DP  RH WIND       PRES   REMARKS
OKLAHOMA CITY  CLOUDY    68  61  78 NE7       30.06F
OKC/WILEY POST MOCLDY    66  61  84 E5        30.07F
OKC/TINKER AFB TSTM      66  63  88 N10G30    30.06F
STILLWATER     LGT RAIN  67  63  87 W5        30.06R
GUTHRIE        LGT RAIN  64  61  90 VRB5      30.10S FOG
$$

OKZ008-013-054>072-300600-
NORTHEAST OKLAHOMA

CITY           SKY/WX    TMP DP  RH WIND       PRES   REMARKS
TULSA          CLOUDY    70  62  76 S5        30.05S
TULSA/JONES    CLOUDY    70  61  73 SW5       30.05F
PONCA CITY     CLOUDY    72  62  71 SE8       30.06R
BARTLESVILLE   CLOUDY    63  62  97 CALM      30.08R
MUSKOGEE       MOCLDY    69  64  84 S5        30.07S
$$

OKZ032-040>043-046>053-073>077-300600-
SOUTH CENTRAL/SOUTHEAST OKLAHOMA

CITY           SKY/WX    TMP DP  RH WIND       PRES   REMARKS
ARDMORE/DWNTWN CLOUDY    72  66  83 CALM      30.05F
MCALESTER      CLOUDY    73  68  84 SE3       30.07S
$$






000
ASUS44 KOUN 300000
RWROK

WEATHER ROUNDUP FOR OKLAHOMA
NATIONAL WEATHER SERVICE NORMAN OK
700 PM CDT SUN MAY 29 2016

NOTE: "FAIR" INDICATES FEW OR NO CLOUDS BELOW 12,000 FEET WITH NO
      SIGNIFICANT WEATHER AND/OR OBSTRUCTIONS TO VISIBILITY.

OKZ001>007-009>012-014-015-017-300100-
NORTHWEST OKLAHOMA AND THE PANHANDLE

CITY           SKY/WX    TMP DP  RH WIND       PRES   REMARKS
GAGE           CLOUDY    73  46  38 SW32G40   29.98F
6HR MIN TEMP:  64; 6HR MAX TEMP:  75; 6HR PCP: TRACE;

GUYMON         CLOUDY    66  50  56 S17G25    30.08R
$$

OKZ016-021>023-033>039-044-045-300100-
SOUTHWEST OKLAHOMA

CITY           SKY/WX    TMP DP  RH WIND       PRES   REMARKS
LAWTON/REGL    CLOUDY    79  66  64 NE3       30.03R
6HR MIN TEMP:  79; 6HR MAX TEMP:  89;

LAWTON/FT SILL CLOUDY    80  65  59 E6        30.02R
CLINTON        CLOUDY    67  56  67 W24       30.11R
HOBART         LGT RAIN  67  61  81 NW16G25   30.10R
$$

OKZ018>020-024>031-300100-
CENTRAL OKLAHOMA

CITY           SKY/WX    TMP DP  RH WIND       PRES   REMARKS
OKLAHOMA CITY  PTSUNNY   81  63  54 SE10      30.03R
6HR MIN TEMP:  81; 6HR MAX TEMP:  89;

OKC/WILEY POST CLOUDY    84  58  40 SE10      30.03R
STILLWATER     CLOUDY    79  65  62 E12       30.02S
GUTHRIE        CLOUDY    83  63  50 E5        30.02R
$$

OKZ008-013-054>072-300100-
NORTHEAST OKLAHOMA

CITY           SKY/WX    TMP DP  RH WIND       PRES   REMARKS
TULSA          CLOUDY    74  57  55 SE13      30.02R
6HR MIN TEMP:  73; 6HR MAX TEMP:  88; 6HR PCP:  0.01;

TULSA/JONES    LGT RAIN  77  57  50 E15G24    30.03R
PONCA CITY     CLOUDY    76  61  59 E7        30.03F
BARTLESVILLE   CLOUDY    75  64  68 SE6       30.05S
MUSKOGEE       MOSUNNY   84  68  58 SE10      30.04R
$$

OKZ032-040>043-046>053-073>077-300100-
SOUTH CENTRAL/SOUTHEAST OKLAHOMA

CITY           SKY/WX    TMP DP  RH WIND       PRES   REMARKS
MCALESTER      CLOUDY    80  74  81 CALM      30.03S
$$






000
ASUS44 KOUN 292300
RWROK

WEATHER ROUNDUP FOR OKLAHOMA
NATIONAL WEATHER SERVICE NORMAN OK
600 PM CDT SUN MAY 29 2016

NOTE: "FAIR" INDICATES FEW OR NO CLOUDS BELOW 12,000 FEET WITH NO
      SIGNIFICANT WEATHER AND/OR OBSTRUCTIONS TO VISIBILITY.

OKZ001>007-009>012-014-015-017-300000-
NORTHWEST OKLAHOMA AND THE PANHANDLE

CITY           SKY/WX    TMP DP  RH WIND       PRES   REMARKS
GAGE           CLOUDY    71  48  43 SW23G36   30.06S
GUYMON         CLOUDY    71  44  37 S9        30.05F
$$

OKZ016-021>023-033>039-044-045-300000-
SOUTHWEST OKLAHOMA

CITY           SKY/WX    TMP DP  RH WIND       PRES   REMARKS
LAWTON/REGL    CLOUDY    82  63  52 E5        30.01S
CLINTON        CLOUDY    77  52  41 NW9       30.08R
HOBART         CLOUDY    79  61  53 NW9       30.06R
ALTUS AFB      TSTM      79  61  53 SE5       30.03R
$$

OKZ018>020-024>031-300000-
CENTRAL OKLAHOMA

CITY           SKY/WX    TMP DP  RH WIND       PRES   REMARKS
OKLAHOMA CITY  PTSUNNY   84  62  47 SE9       30.01F
OKC/WILEY POST CLOUDY    86  57  37 SE15      30.00F
STILLWATER     SUNNY     82  64  54 E12       30.02S
GUTHRIE        CLOUDY    87  59  38 SE6       30.00S
$$

OKZ008-013-054>072-300000-
NORTHEAST OKLAHOMA

CITY           SKY/WX    TMP DP  RH WIND       PRES   REMARKS
TULSA          LGT RAIN  79  65  62 N9        30.00F
TULSA/JONES    MOSUNNY   81  66  60 VRB5      30.01F
PONCA CITY     SUNNY     79  61  53 NE10      30.04R
BARTLESVILLE   CLOUDY    73  67  81 NE7       30.05F
MUSKOGEE       CLOUDY    85  68  56 SE9       30.02F
$$

OKZ032-040>043-046>053-073>077-300000-
SOUTH CENTRAL/SOUTHEAST OKLAHOMA

CITY           SKY/WX    TMP DP  RH WIND       PRES   REMARKS
MCALESTER      CLOUDY    82  70  66 CALM      30.03S
$$






    US Dept of Commerce
    National Oceanic and Atmospheric Administration
    National Weather Service
    1325 East West Highway
    Silver Spring, MD 20910
    Page Author: NWS Internet Services Team
Disclaimer
Information Quality
Credits
Glossary
Privacy Policy
Freedom of Information Act (FOIA)
About Us
Career Opportunities